[[{"header":{"parameterUnit":"m.s-1","parameterCategory":1,"la1":30.2991,"la2":30.254,"lo1":-89.0895,"lo2":-89.0444,"dy":0.0017,"dx":0.0017,"nx":28,"ny":28,"refTime":"2025-04-22T21:00:00:Z","depth":0,"parameterNumber":2,"parameterNumberName":"U-component_of_WINDS"},"data":[0,0,0,0,0,0,0,0,0,0,0,0,0,0,0,0,0,0,0,0,0,0,0,0,0,0,0,0,0,0,0,0,0,0,0,0,0,0,0,0,0,0,0,0,0,0,0,0,0,0,0,0,0,0,0,0,0,0,-1.6574,-1.6574,0,-1.6598,-1.6598,-1.6598,-1.6582,-1.6581,-1.6581,-1.658,-1.6608,-1.6609,-1.6611,0,0,0,0,0,0,0,0,0,0,0,0,0,-1.6516,-1.6517,-1.6573,-1.6574,-1.6574,-1.6598,-1.6598,-1.6599,-1.6582,-1.6581,-1.658,-1.658,-1.6607,-1.6609,-1.6611,0,0,0,0,0,0,0,0,0,0,0,0,0,-1.6541,-1.6517,-1.6573,-1.6569,-1.6569,-1.6598,-1.6598,-1.6599,-1.6582,-1.6581,-1.658,-1.6579,-1.6607,-1.6609,-1.6611,-1.6647,0,0,-1.6618,-1.6619,0,0,0,0,0,0,0,0,-1.6539,-1.6543,-1.6569,-1.6569,-1.6569,-1.6586,-1.6588,-1.6615,-1.6583,-1.6577,-1.658,-1.6579,-1.6602,-1.6604,-1.6611,-1.6648,-1.6649,-1.6618,-1.6619,-1.662,-1.6621,0,0,0,0,0,0,0,-1.6537,-1.6542,-1.6583,-1.657,-1.657,-1.6566,-1.6569,-1.6593,-1.6596,-1.6578,-1.6577,-1.658,-1.6601,-1.6609,-1.6612,-1.665,-1.6618,-1.662,-1.6621,-1.6622,-1.6718,-1.6719,0,0,0,0,0,0,-1.6536,-1.654,-1.6582,-1.6584,-1.6551,-1.6568,-1.6571,-1.6582,-1.6595,-1.6596,-1.658,-1.6579,-1.6606,-1.6609,-1.6613,-1.6656,-1.662,-1.6622,-1.6623,-1.6717,-1.6719,-1.672,0,0,0,0,0,0,-1.6535,-1.654,-1.6581,-1.6562,-1.6567,-1.6571,-1.6583,-1.6583,-1.659,-1.6597,-1.6598,-1.6588,-1.6605,-1.661,-1.6638,-1.6657,-1.6623,-1.6625,-1.6716,-1.6717,-1.6719,-1.6743,0,0,0,0,0,0,-1.6533,-1.6539,-1.6552,-1.6562,-1.6568,-1.6606,-1.6584,-1.6584,-1.6594,-1.6592,-1.6604,-1.6605,-1.6605,-1.6635,-1.6641,-1.6659,-1.6627,-1.6714,-1.6716,-1.6719,-1.674,-1.6745,-1.6749,0,0,0,0,0,-1.6531,-1.6559,-1.6553,-1.6558,-1.6584,-1.6607,-1.6611,-1.6608,-1.6595,-1.6609,-1.6613,-1.6605,-1.6654,-1.6638,-1.6644,-1.6664,-1.6713,-1.6716,-1.6718,-1.6738,-1.6744,-1.6749,0,0,0,0,0,0,-1.6552,-1.656,-1.6554,-1.6585,-1.6595,-1.6604,-1.6621,-1.6615,-1.663,-1.6627,-1.6625,-1.6628,-1.6658,-1.6664,-1.6646,-1.67,-1.6681,-1.6686,-1.6695,-1.67,-1.6705,-1.6703,-1.6628,0,0,0,0,0,-1.656,-1.6577,-1.6583,-1.6611,-1.6616,-1.6618,-1.6628,-1.6625,-1.6636,-1.6641,-1.6647,-1.6659,-1.6677,-1.6689,-1.6706,-1.6741,-1.6744,-1.6757,-1.6762,-1.6766,-1.6769,-1.6789,-1.6795,-1.6729,-1.6729,-1.6729,0,0,-1.6577,-1.6584,-1.6595,-1.6615,-1.6622,-1.6641,-1.6622,-1.6642,-1.6656,-1.6644,-1.6671,-1.6677,-1.669,-1.6722,-1.6737,-1.6728,-1.6788,-1.6769,-1.6772,-1.6774,-1.6793,-1.6799,-1.6804,-1.6731,-1.6731,-1.6731,0,0,-1.6618,-1.6624,-1.6648,-1.6656,-1.6667,-1.6668,-1.6674,-1.6684,-1.6687,-1.6714,-1.6705,-1.6722,-1.6753,-1.6763,-1.6772,-1.6817,-1.681,-1.6822,-1.6846,-1.6865,-1.687,-1.6875,-1.6892,-1.6897,-1.6826,-1.6826,-1.6826,0,-1.6638,-1.6665,-1.6661,-1.6682,-1.6691,-1.668,-1.6705,-1.6713,-1.673,-1.6737,-1.6727,-1.6765,-1.6773,-1.6808,-1.6819,-1.6826,-1.6833,-1.6821,-1.687,-1.6874,-1.6879,-1.6894,-1.6901,-1.6828,-1.6827,-1.6827,-1.6827,0,-1.669,-1.6708,-1.6726,-1.6742,-1.6753,-1.6776,-1.6776,-1.6788,-1.6785,-1.6787,-1.6816,-1.6825,-1.6843,-1.6851,-1.6848,-1.6886,-1.688,-1.687,-1.6852,-1.6887,-1.6901,-1.6907,-1.683,-1.6829,-1.6829,-1.6828,0,0,-1.6745,-1.6757,-1.6764,-1.6771,-1.6783,-1.6798,-1.682,-1.6838,-1.6849,-1.6861,-1.688,-1.6906,-1.6897,-1.6907,-1.6905,-1.6922,-1.6958,-1.691,-1.691,-1.6919,-1.7,-1.7008,-1.7015,-1.6953,-1.6954,-1.6955,-1.6999,0,-1.6787,-1.6825,-1.6822,-1.6858,-1.6876,-1.6865,-1.6885,-1.6895,-1.6898,-1.6914,-1.6918,-1.6937,-1.6923,-1.6929,-1.6945,-1.695,-1.6974,-1.6947,-1.6972,-1.6973,-1.6969,-1.7023,-1.7031,-1.7072,-1.7005,-1.7006,-1.7006,0,-1.6841,-1.6854,-1.6892,-1.6901,-1.6908,-1.6926,-1.6942,-1.6957,-1.6968,-1.6969,-1.6981,-1.6976,-1.7,-1.698,-1.7014,-1.6995,-1.7005,-1.7009,-1.7011,-1.7013,-1.6992,-1.7027,-1.7085,-1.7092,-1.7015,-1.7015,-1.7014,0,-1.6878,-1.6905,-1.6931,-1.6937,-1.6949,-1.6961,-1.6967,-1.6977,-1.6988,-1.7002,-1.7009,-1.7026,-1.7036,-1.7049,-1.705,-1.7036,-1.7084,-1.7064,-1.7086,-1.7086,-1.7097,-1.7096,-1.7158,-1.7103,-1.7102,-1.7102,-1.7102,0,-1.6925,-1.6949,-1.6948,-1.6964,-1.699,-1.6987,-1.7014,-1.7018,-1.7027,-1.7045,-1.7037,-1.7054,-1.7053,-1.7071,-1.7071,-1.7099,-1.7103,-1.7105,-1.7105,-1.7106,-1.7106,-1.7113,-1.7111,-1.7104,-1.7104,-1.7103,-1.7103,0,-1.6971,-1.6971,-1.6999,-1.7007,-1.701,-1.7029,-1.7037,-1.7053,-1.7055,-1.7077,-1.7082,-1.7086,-1.7106,-1.7108,-1.7131,-1.7132,-1.7165,-1.7162,-1.7161,-1.7161,-1.7182,-1.718,-1.7251,-1.7261,-1.7199,-1.7199,-1.72,0,-1.7002,-1.702,-1.7029,-1.704,-1.7046,-1.7064,-1.7074,-1.7072,-1.7083,-1.7098,-1.7112,-1.7131,-1.7146,-1.7179,-1.7185,-1.7203,-1.72,-1.7224,-1.7203,-1.7203,-1.7201,-1.72,-1.7202,-1.7228,-1.7229,-1.7229,-1.723,0,-1.7056,-1.7055,-1.707,-1.7085,-1.7098,-1.711,-1.7122,-1.7131,-1.713,-1.7144,-1.7163,-1.7175,-1.7199,-1.7218,-1.7236,-1.7243,-1.7237,-1.7236,-1.7242,-1.7243,-1.7242,-1.7244,-1.7173,-1.7235,-1.7234,-1.7234,-1.7233,-1.7233,-1.7096,-1.7111,-1.7121,-1.7138,-1.7146,-1.7156,-1.7172,-1.7175,-1.7191,-1.721,-1.7208,-1.723,-1.7241,-1.7264,-1.7272,-1.729,-1.7283,-1.7291,-1.7294,-1.7296,-1.7298,-1.7239,-1.7294,-1.7293,-1.7293,-1.7293,-1.7293,0,-1.715,-1.7156,-1.7171,-1.7187,-1.7201,-1.7192,-1.7204,-1.7217,-1.7236,-1.7247,-1.7261,-1.7285,-1.7303,-1.731,-1.7328,-1.7342,-1.7339,-1.7347,-1.7346,-1.7348,-1.7304,-1.7297,-1.7348,-1.7348,-1.7348,-1.7348,-1.7348,-1.7348,-1.718,-1.7206,-1.7206,-1.7236,-1.7242,-1.7263,-1.727,-1.728,-1.7289,-1.7315,-1.733,-1.7333,-1.7343,-1.7362,-1.7379,-1.7381,-1.7388,-1.7397,-1.7397,-1.7356,-1.7351,-1.7346,-1.7339,-1.7398,-1.7398,-1.744,-1.744,-1.744]},{"header":{"parameterUnit":"m.s-1","parameterCategory":1,"la1":30.2991,"la2":30.254,"lo1":-89.0895,"lo2":-89.0444,"dy":0.0017,"dx":0.0017,"nx":28,"ny":28,"refTime":"2025-04-22T21:00:00:Z","depth":0,"parameterNumber":3,"parameterNumberName":"V-component_of_WINDS"},"data":[0,0,0,0,0,0,0,0,0,0,0,0,0,0,0,0,0,0,0,0,0,0,0,0,0,0,0,0,0,0,0,0,0,0,0,0,0,0,0,0,0,0,0,0,0,0,0,0,0,0,0,0,0,0,0,0,0,0,2.0065,2.0065,0,2.0025,2.0024,2.0024,1.9973,1.9972,1.9971,1.997,1.9929,1.9929,1.9928,0,0,0,0,0,0,0,0,0,0,0,0,0,2.0097,2.0096,2.0065,2.0064,2.0064,2.0025,2.0024,2.0024,1.9973,1.9972,1.9971,1.997,1.9929,1.9929,1.9928,0,0,0,0,0,0,0,0,0,0,0,0,0,2.0072,2.0096,2.0065,2.0034,2.0031,2.0025,2.0024,2.0024,1.9973,1.9972,1.997,1.9969,1.9929,1.9929,1.9928,1.995,0,0,1.9927,1.9927,0,0,0,0,0,0,0,0,2.0074,2.0071,2.0039,2.0036,2.0032,2.0002,2.002,1.9999,1.9973,1.9995,1.997,1.9969,1.9954,1.9952,1.9947,1.9948,1.9947,1.9927,1.9927,1.9926,1.9926,0,0,0,0,0,0,0,2.0076,2.0073,2.0049,2.0038,2.0034,2.0022,2.0017,2.0016,1.9982,1.9993,1.9989,1.9985,1.9952,1.9948,1.9946,1.9946,1.9927,1.9926,1.9926,1.9926,1.9962,1.9963,0,0,0,0,0,0,2.0082,2.0075,2.005,2.0048,2.005,2.0022,2.0017,2.0013,1.9982,1.9976,1.9986,1.9983,1.9949,1.9946,1.9944,1.9967,1.9926,1.9926,1.9926,1.9961,1.9963,1.9964,0,0,0,0,0,0,2.0083,2.008,2.0052,2.006,2.0056,2.0023,2.002,2.0013,2.0008,1.9977,1.9971,1.9988,1.9948,1.9945,1.9949,1.9965,1.9926,1.9925,1.996,1.9961,1.9963,2.0014,0,0,0,0,0,0,2.0084,2.0081,2.0089,2.0061,2.0055,2.0058,2.002,2.0013,2.0008,2.0003,1.9977,1.9971,1.9947,1.995,1.9948,1.9964,1.9925,1.9958,1.996,1.9963,2.0011,2.0017,2.0023,0,0,0,0,0,2.0085,2.0105,2.009,2.0087,2.0065,2.0059,2.0056,2.0028,2.0009,2.0017,1.9997,1.9972,1.9964,1.9951,1.9949,1.9964,1.9957,1.996,1.9962,2.0008,2.0016,2.0023,0,0,0,0,0,0,2.0137,2.0101,2.0084,2.0095,2.008,2.005,2.0059,2.0037,2.0028,2.0024,1.9989,1.9983,1.9992,1.9978,1.9965,1.9983,1.9956,1.9959,1.9992,1.9999,2.0005,2.0008,1.9924,0,0,0,0,0,2.0149,2.0147,2.0116,2.0129,2.0123,2.0093,2.0089,2.0068,2.0052,2.0045,2.0025,2.001,2.0004,2.0001,1.9993,2.0008,2.0002,2.0018,2.0024,2.0029,2.0032,2.0038,2.0045,1.9973,1.9973,1.9973,0,0,2.0175,2.0156,2.0157,2.0139,2.0125,2.0124,2.0088,2.0088,2.0087,2.0045,2.0048,2.0033,2.0014,2.0023,2.0026,2.0012,2.005,2.0033,2.0037,2.0037,2.0042,2.0048,2.0054,1.9975,1.9975,1.9974,0,0,2.0222,2.0207,2.0216,2.0203,2.0182,2.0162,2.0164,2.0137,2.0126,2.0128,2.0097,2.0094,2.0085,2.0072,2.0064,2.0106,2.0082,2.0104,2.0137,2.0143,2.0149,2.0153,2.0168,2.0173,2.0107,2.0107,2.0107,0,2.0257,2.0254,2.0223,2.0225,2.0218,2.0181,2.0189,2.0178,2.0157,2.0152,2.0137,2.0123,2.0108,2.0114,2.0124,2.0119,2.012,2.0107,2.015,2.0155,2.0159,2.0172,2.0178,2.011,2.011,2.0109,2.0109,0,2.0298,2.0296,2.0305,2.0285,2.0279,2.0285,2.0255,2.0252,2.0232,2.0213,2.0216,2.0195,2.0183,2.0183,2.0163,2.0186,2.0177,2.0157,2.0129,2.0169,2.0181,2.0186,2.0114,2.0113,2.0112,2.0111,0,0,2.0376,2.0338,2.0342,2.0333,2.0307,2.0305,2.0308,2.0296,2.0295,2.0281,2.0283,2.0275,2.0255,2.0247,2.0225,2.0231,2.0264,2.0209,2.0208,2.022,2.0287,2.0303,2.0309,2.0249,2.025,2.025,2.0289,0,2.0418,2.0422,2.0394,2.0405,2.0403,2.0367,2.037,2.0354,2.0337,2.0332,2.0312,2.0307,2.0282,2.0276,2.028,2.026,2.0277,2.0256,2.025,2.025,2.0256,2.0316,2.0333,2.037,2.0293,2.0294,2.0294,0,2.0467,2.0456,2.0467,2.044,2.0438,2.0441,2.0428,2.0424,2.0405,2.0392,2.0382,2.0357,2.0358,2.0332,2.0333,2.0319,2.0315,2.0304,2.0305,2.0303,2.0275,2.0315,2.0381,2.0387,2.0302,2.0301,2.03,0,2.0523,2.051,2.0515,2.0508,2.0477,2.048,2.0467,2.0448,2.0442,2.043,2.0425,2.0414,2.0407,2.0399,2.0371,2.0355,2.0375,2.0347,2.0364,2.0364,2.037,2.037,2.0436,2.0367,2.0367,2.0367,2.0367,0,2.0572,2.0581,2.054,2.0543,2.055,2.0518,2.0527,2.051,2.0493,2.0492,2.046,2.046,2.0423,2.0419,2.0397,2.0401,2.0398,2.0387,2.0382,2.039,2.0392,2.0387,2.0383,2.0368,2.0368,2.0368,2.0368,0,2.0636,2.0609,2.0612,2.0582,2.0575,2.0582,2.0557,2.0558,2.0538,2.0537,2.0535,2.0504,2.0496,2.0468,2.0454,2.044,2.045,2.0439,2.0457,2.0453,2.0471,2.047,2.0536,2.0543,2.0471,2.0472,2.0472,0,2.067,2.0675,2.0646,2.0643,2.0631,2.0627,2.0621,2.0589,2.0584,2.0563,2.0567,2.0557,2.0548,2.0538,2.0514,2.0503,2.0491,2.0515,2.0489,2.0497,2.0491,2.0491,2.0491,2.052,2.0521,2.0522,2.0523,0,2.0732,2.0718,2.071,2.0698,2.0692,2.0681,2.0667,2.0667,2.0631,2.0627,2.0619,2.0612,2.0598,2.0588,2.0573,2.0559,2.0535,2.0531,2.0534,2.0543,2.0553,2.0548,2.0472,2.053,2.0529,2.0528,2.0528,2.0528,2.0781,2.0784,2.0764,2.0756,2.0743,2.0731,2.0731,2.0711,2.0704,2.069,2.0671,2.0666,2.0646,2.0623,2.0612,2.0607,2.0593,2.0598,2.0599,2.0601,2.0605,2.0554,2.0604,2.0604,2.0603,2.0603,2.0603,0,2.0842,2.0827,2.082,2.0803,2.0797,2.0774,2.0758,2.0755,2.075,2.0734,2.0725,2.0716,2.0707,2.0682,2.067,2.067,2.0659,2.0668,2.0668,2.0665,2.0618,2.0616,2.0678,2.0678,2.0678,2.0678,2.0678,2.0678,2.0872,2.0876,2.086,2.0856,2.0841,2.0835,2.0828,2.0817,2.0804,2.0795,2.0787,2.0771,2.0751,2.0737,2.0727,2.072,2.0717,2.073,2.0719,2.0676,2.0669,2.0662,2.066,2.073,2.073,2.0767,2.0767,2.0767]}]]